McHenry, MD

11:34 PM EST on February 10, 2016 (GMT -0500)
Oakland

Weather History for K2G4 - March, 2013

Change the Weather History Date:

Tuesday, March 26, 2013

  Actual Average (KMGW) Record (KMGW)
Temperature  
Mean Temperature 30 °F 46 °F  
Max Temperature 33 °F 56 °F 81 °F (1967)
Min Temperature 26 °F 35 °F 14 °F (1955)
Degree Days  
Heating Degree Days 36 20  
Month to date heating degree days 619  
Since 1 July heating degree days 4508  
Cooling Degree Days 0 0  
Month to date cooling degree days 0  
Year to date cooling degree days 0  
Moisture  
Dew Point 27 °F    
Average Humidity 95    
Maximum Humidity 100    
Minimum Humidity 60    
Precipitation  
Precipitation 0.00 in 0.12 in 1.34 in (2002)
Month to date precipitation 3.02  
Year to date precipitation 8.43  
Sea Level Pressure  
Sea Level Pressure 29.81 in    
Wind  
Wind Speed 8 mph (WNW)    
Max Wind Speed 13 mph    
Max Gust Speed 21 mph    
Visibility 5 miles    
Events Fog    
T = Trace of Precipitation, MM = Missing Value Source: NWS Daily Summary

Daily Weather History Graph

Daily Weather History Graph

Search for Another Location

Airport or City:

Trip Planner

Search our weather history database for the weather conditions in past years. The results will help you decide how hot, cold, wet, or windy it might be!

Date:

Astronomy

Mar. 26, 2013 Rise Set
Actual Time 7:10 AM EDT 7:35 PM EDT
Civil Twilight 6:43 AM EDT 8:02 PM EDT
Nautical Twilight 6:12 AM EDT 8:34 PM EDT
Astronomical Twilight 5:39 AM EDT 9:06 PM EDT
Moon 7:10 PM EDT (3/26) 6:26 AM EDT (3/26)
Length of Visible Light 13h 18m
Length of Day
12h 24m
Waxing Gibbous, 99% of the Moon is Illuminated
Mar 26
Waxing Gibbous
Mar 27
Full
Apr 3
Last Quarter
Apr 10
New
Apr 18
First Quarter

Hourly Weather History & Observations

Time (EDT) Temp. Windchill Dew Point Humidity Pressure Visibility Wind Dir Wind Speed Gust Speed Precip Events Conditions
12:00 AM 26.6 °F 18.2 °F 26.6 °F 100% 29.63 in 7.0 mi West 8.1 mph - N/A   Overcast
12:20 AM 26.6 °F 17.5 °F 26.6 °F 100% 29.63 in 7.0 mi West 9.2 mph - N/A   Overcast
12:40 AM 26.6 °F 18.2 °F 26.6 °F 100% 29.64 in 7.0 mi West 8.1 mph 17.3 mph N/A   Overcast
1:00 AM 26.6 °F 17.5 °F 26.6 °F 100% 29.64 in 5.0 mi West 9.2 mph 16.1 mph N/A   Overcast
1:20 AM 26.6 °F 18.2 °F 26.6 °F 100% 29.64 in 3.0 mi West 8.1 mph 20.7 mph N/A   Overcast
1:40 AM 26.6 °F 18.2 °F 26.6 °F 100% 29.65 in 2.5 mi West 8.1 mph - N/A   Overcast
2:00 AM 26.6 °F 17.5 °F 26.6 °F 100% 29.65 in 2.5 mi West 9.2 mph - N/A   Overcast
2:20 AM 26.6 °F 19.1 °F 26.6 °F 100% 29.66 in 1.5 mi West 6.9 mph - N/A   Overcast
2:40 AM 28.4 °F 21.2 °F 28.4 °F 100% 29.66 in 1.5 mi West 6.9 mph - N/A   Overcast
3:00 AM 28.4 °F 21.2 °F 28.4 °F 100% 29.67 in 1.2 mi West 6.9 mph - N/A   Overcast
3:20 AM 28.4 °F 22.2 °F 28.4 °F 100% 29.67 in 0.5 mi West 5.8 mph - N/A Fog Light Freezing Fog
3:40 AM 28.4 °F 21.2 °F 28.4 °F 100% 29.67 in 0.2 mi WNW 6.9 mph - N/A Fog Light Freezing Fog
4:00 AM 28.4 °F 22.2 °F 28.4 °F 100% 29.68 in 0.2 mi NW 5.8 mph - N/A Fog Light Freezing Fog
4:20 AM 28.4 °F 23.3 °F 28.4 °F 100% 29.69 in 0.2 mi NW 4.6 mph - N/A Fog Light Freezing Fog
4:40 AM 28.4 °F 20.4 °F 28.4 °F 100% 29.69 in 0.2 mi NW 8.1 mph - N/A Fog Light Freezing Fog
5:00 AM 26.6 °F 21.2 °F 26.6 °F 100% 29.70 in 0.8 mi WNW 4.6 mph - N/A   Overcast
5:20 AM 28.4 °F 20.4 °F 28.4 °F 100% 29.70 in 0.5 mi WNW 8.1 mph - N/A Fog Light Freezing Fog
5:40 AM 26.6 °F 17.5 °F 26.6 °F 100% 29.71 in 0.8 mi NW 9.2 mph - N/A   Overcast
6:00 AM 26.6 °F 21.2 °F 26.6 °F 100% 29.71 in 0.8 mi NW 4.6 mph - N/A   Overcast
6:20 AM 26.6 °F 19.1 °F 26.6 °F 100% 29.72 in 3.0 mi NNW 6.9 mph - N/A   Overcast
7:00 AM 26.6 °F 19.1 °F 26.6 °F 100% 29.74 in 5.0 mi NW 6.9 mph - N/A   Overcast
7:20 AM 26.6 °F 17.5 °F 26.6 °F 100% 29.75 in 7.0 mi NW 9.2 mph 16.1 mph N/A   Overcast
7:40 AM 26.6 °F 17.5 °F 26.6 °F 100% 29.76 in 7.0 mi NW 9.2 mph - N/A   Overcast
8:00 AM 26.6 °F 19.1 °F 26.6 °F 100% 29.77 in 5.0 mi NW 6.9 mph - N/A   Overcast
8:20 AM 26.6 °F 20.0 °F 26.6 °F 100% 29.78 in 3.0 mi NW 5.8 mph - N/A   Overcast
8:40 AM 26.6 °F 19.1 °F 26.6 °F 100% 29.78 in 4.0 mi NW 6.9 mph - N/A   Overcast
9:00 AM 26.6 °F 18.2 °F 26.6 °F 100% 29.79 in 7.0 mi NW 8.1 mph - N/A   Overcast
9:20 AM 26.6 °F 18.2 °F 26.6 °F 100% 29.80 in 4.0 mi NW 8.1 mph - N/A   Overcast
9:40 AM 26.6 °F 16.8 °F 26.6 °F 100% 29.80 in 4.0 mi WNW 10.4 mph 16.1 mph N/A   Overcast
10:00 AM 28.4 °F 21.2 °F 28.4 °F 100% 29.80 in 4.0 mi WNW 6.9 mph 17.3 mph N/A   Overcast
10:20 AM 28.4 °F 19.7 °F 28.4 °F 100% 29.81 in 10.0 mi WNW 9.2 mph 16.1 mph N/A   Overcast
10:40 AM 28.4 °F 18.5 °F 28.4 °F 100% 29.82 in 7.0 mi WNW 11.5 mph 18.4 mph N/A   Overcast
11:00 AM 28.4 °F 19.7 °F 28.4 °F 100% 29.82 in 7.0 mi NW 9.2 mph - N/A   Overcast
11:20 AM 28.4 °F 20.4 °F 28.4 °F 100% 29.83 in 1.8 mi NW 8.1 mph - N/A   Overcast
11:40 AM 30.2 °F 21.9 °F 30.2 °F 100% 29.84 in 5.0 mi NW 9.2 mph 16.1 mph N/A   Overcast
12:00 PM 30.2 °F 24.3 °F 30.2 °F 100% 29.85 in 2.5 mi NW 5.8 mph - N/A   Overcast
12:20 PM 30.2 °F 21.9 °F 30.2 °F 100% 29.85 in 5.0 mi NW 9.2 mph 16.1 mph N/A   Overcast
12:40 PM 30.2 °F 20.8 °F 28.4 °F 93% 29.85 in 10.0 mi WNW 11.5 mph 18.4 mph N/A   Overcast
1:00 PM 30.2 °F 21.3 °F 28.4 °F 93% 29.85 in 10.0 mi NW 10.4 mph - N/A   Overcast
1:20 PM 30.2 °F 21.9 °F 28.4 °F 93% 29.85 in 5.0 mi WNW 9.2 mph - N/A   Overcast
1:40 PM 32.0 °F 24.8 °F 26.6 °F 80% 29.85 in 10.0 mi WNW 8.1 mph - N/A   Overcast
2:00 PM 32.0 °F 24.2 °F 26.6 °F 80% 29.85 in 10.0 mi NW 9.2 mph - N/A   Overcast
2:20 PM 32.0 °F 24.2 °F 24.8 °F 75% 29.85 in 10.0 mi WNW 9.2 mph - N/A   Overcast
2:40 PM 32.0 °F 24.2 °F 23.0 °F 69% 29.86 in 7.0 mi WNW 9.2 mph - N/A   Overcast
3:00 PM 32.0 °F 24.2 °F 23.0 °F 69% 29.86 in 10.0 mi NW 9.2 mph - N/A   Overcast
3:20 PM 32.0 °F 24.8 °F 23.0 °F 69% 29.86 in 10.0 mi NNW 8.1 mph - N/A   Overcast
3:40 PM 32.0 °F 24.8 °F 23.0 °F 69% 29.86 in 5.0 mi NW 8.1 mph - N/A   Haze
4:00 PM 32.0 °F 26.4 °F 23.0 °F 69% 29.86 in 10.0 mi WNW 5.8 mph - N/A   Overcast
4:20 PM 33.8 °F 27.0 °F 21.2 °F 60% 29.86 in 10.0 mi WNW 8.1 mph - N/A   Overcast
4:40 PM 32.0 °F 24.2 °F 23.0 °F 69% 29.86 in 7.0 mi NNW 9.2 mph - N/A   Overcast
5:00 PM 32.0 °F 26.4 °F 26.6 °F 80% 29.87 in 5.0 mi NNW 5.8 mph - N/A   Haze
5:20 PM 32.0 °F 24.2 °F 23.0 °F 69% 29.87 in 10.0 mi NW 9.2 mph 18.4 mph N/A   Overcast
5:40 PM 32.0 °F 24.8 °F 26.6 °F 80% 29.88 in 10.0 mi West 8.1 mph - N/A   Overcast
6:00 PM 30.2 °F 24.3 °F 30.2 °F 100% 29.89 in 1.5 mi West 5.8 mph - N/A   Overcast
6:20 PM 30.2 °F 24.3 °F 30.2 °F 100% 29.89 in 3.0 mi West 5.8 mph - N/A   Overcast
7:00 PM 28.4 °F 21.2 °F 28.4 °F 100% 29.90 in 7.0 mi WNW 6.9 mph - N/A   Overcast
7:20 PM 28.4 °F 20.4 °F 28.4 °F 100% 29.91 in 10.0 mi WNW 8.1 mph - N/A   Overcast
7:40 PM 28.4 °F 19.7 °F 28.4 °F 100% 29.91 in 1.2 mi NW 9.2 mph - N/A   Overcast
8:00 PM 28.4 °F 19.7 °F 28.4 °F 100% 29.92 in 5.0 mi WNW 9.2 mph 16.1 mph N/A   Mostly Cloudy
8:20 PM 28.4 °F 19.1 °F 28.4 °F 100% 29.93 in 7.0 mi NW 10.4 mph 16.1 mph N/A   Overcast
8:40 PM 28.4 °F 19.7 °F 28.4 °F 100% 29.94 in 7.0 mi WNW 9.2 mph - N/A   Overcast
9:00 PM 28.4 °F 19.7 °F 28.4 °F 100% 29.94 in 10.0 mi WNW 9.2 mph 17.3 mph N/A   Overcast
9:20 PM 28.4 °F 19.7 °F 28.4 °F 100% 29.95 in 10.0 mi WNW 9.2 mph 16.1 mph N/A   Overcast
9:40 PM 28.4 °F 19.1 °F 28.4 °F 100% 29.96 in 10.0 mi WNW 10.4 mph 16.1 mph N/A   Overcast
10:00 PM 28.4 °F 21.2 °F 28.4 °F 100% 29.96 in 10.0 mi WNW 6.9 mph 16.1 mph N/A   Overcast
10:20 PM 28.4 °F 18.0 °F 28.4 °F 100% 29.97 in 10.0 mi NW 12.7 mph 17.3 mph N/A   Overcast
10:40 PM 28.4 °F 18.5 °F 28.4 °F 100% 29.97 in 7.0 mi WNW 11.5 mph 16.1 mph N/A   Overcast
11:00 PM 28.4 °F 21.2 °F 28.4 °F 100% 29.97 in 3.0 mi WNW 6.9 mph - N/A   Overcast
11:20 PM 28.4 °F 21.2 °F 28.4 °F 100% 29.97 in 3.0 mi NW 6.9 mph - N/A   Overcast
11:40 PM 28.4 °F 19.1 °F 28.4 °F 100% 29.97 in 1.5 mi WNW 10.4 mph 17.3 mph N/A   Overcast